Fitchburg, MA

1:44 AM EST on December 12, 2019 (GMT -0500)
Fitchburg Municipal

Weather History for KFIT - June, 2019

Change the Weather History Date:

Friday, June 7, 2019

  Actual Average (KORH) Record (KORH)
Temperature  
Mean Temperature 67 °F -  
Max Temperature 82 °F 70 °F 94 °F (1925)
Min Temperature 52 °F 51 °F 40 °F (1958)
Cooling Degree Days 2    
Growing Degree Days 17 (Base 50)    
Moisture  
Dew Point 49 °F    
Average Humidity 55    
Maximum Humidity 90    
Minimum Humidity 23    
Precipitation  
Precipitation 0.00 in - - ()
Sea Level Pressure  
Sea Level Pressure 29.92 in    
Wind  
Wind Speed 3 mph (NNW)    
Max Wind Speed 13 mph    
Max Gust Speed -    
Visibility 10 miles    
Events      
Averages and records for this station are not official NWS values.
T = Trace of Precipitation, MM = Missing Value Source: NWS Daily Summary

Daily Weather History Graph

Daily Weather History Graph

Search for Another Location

Airport or City:

Astronomy

Jun. 07, 2019 Rise Set
Actual Time 5:10 AM EDT 8:22 PM EDT
Civil Twilight 4:35 AM EDT 8:56 PM EDT
Nautical Twilight 3:51 AM EDT 9:41 PM EDT
Astronomical Twilight 2:57 AM EDT 10:34 PM EDT
Moon 9:24 AM EDT (6/7) No Moon Set
Length of Visible Light 16h 21m
Length of Day
15h 12m
Waxing Crescent, 22% of the Moon is Illuminated
Jun 7
Waxing Crescent
Jun 10
First Quarter
Jun 17
Full
Jun 25
Last Quarter
Jul 2
New

Hourly Weather History & Observations

Time (EDT) Temp. Dew Point Humidity Pressure Visibility Wind Dir Wind Speed Gust Speed Precip Events Conditions
12:52 AM 59.0 °F 55.9 °F 90% 29.89 in 10.0 mi Calm Calm - N/A   Clear
1:52 AM 55.9 °F 53.1 °F 90% 29.89 in 10.0 mi NNW 4.6 mph - N/A   Clear
2:52 AM 54.0 °F 51.1 °F 90% 29.90 in 10.0 mi North 4.6 mph - N/A   Clear
3:52 AM 53.1 °F 50.0 °F 89% 29.90 in 10.0 mi Calm Calm - N/A   Clear
4:52 AM 52.0 °F 48.9 °F 89% 29.90 in 10.0 mi Calm Calm - N/A   Clear
5:52 AM 53.1 °F 50.0 °F 89% 29.93 in 10.0 mi Calm Calm - N/A   Scattered Clouds
6:52 AM 59.0 °F 51.1 °F 75% 29.94 in 10.0 mi NNW 3.5 mph - N/A   Partly Cloudy
7:52 AM 66.0 °F 54.0 °F 65% 29.94 in 10.0 mi Calm Calm - N/A   Partly Cloudy
8:52 AM 71.1 °F 44.1 °F 38% 29.95 in 10.0 mi NNE 5.8 mph - N/A   Clear
9:52 AM 72.0 °F 44.1 °F 37% 29.95 in 10.0 mi Calm Calm - N/A   Clear
10:52 AM 75.0 °F 46.9 °F 37% 29.95 in 10.0 mi NNE 5.8 mph - N/A   Clear
11:52 AM 75.9 °F 46.9 °F 36% 29.94 in 10.0 mi NE 5.8 mph - N/A   Clear
12:52 PM 79.0 °F 46.9 °F 32% 29.93 in 10.0 mi Variable 4.6 mph - N/A   Clear
1:52 PM 81.0 °F 42.1 °F 25% 29.91 in 10.0 mi Variable 5.8 mph - N/A   Clear
2:52 PM 82.0 °F 41.0 °F 23% 29.91 in 10.0 mi West 8.1 mph - N/A   Clear
3:52 PM 82.0 °F 44.1 °F 26% 29.90 in 10.0 mi North - - N/A   Clear
4:52 PM 82.9 °F 46.0 °F 27% 29.89 in 10.0 mi Variable 4.6 mph - N/A   Partly Cloudy
5:52 PM 81.0 °F 48.9 °F 33% 29.89 in 10.0 mi Variable 4.6 mph - N/A   Clear
6:52 PM 81.0 °F 48.0 °F 31% 29.90 in 10.0 mi WNW 5.8 mph - N/A   Clear
7:52 PM 77.0 °F 51.1 °F 40% 29.91 in 10.0 mi WSW 3.5 mph - N/A   Clear
8:52 PM 70.0 °F 53.1 °F 55% 29.93 in 10.0 mi NNW 3.5 mph - N/A   Clear
9:52 PM 68.0 °F 53.1 °F 59% 29.96 in 10.0 mi North 3.5 mph - N/A   Clear
10:52 PM 68.0 °F 55.0 °F 63% 29.98 in 10.0 mi North 5.8 mph - N/A   Clear
11:52 PM 66.0 °F 55.9 °F 70% 30.00 in 10.0 mi NNE 12.7 mph - N/A   Clear